#timestamp,LO_Frequency,Hit,StdDev 
1579820415.3,286047000.3,N
1579820435.1,286047000.1,N
1579820455.9,286047002.3,N
1579820475.7,286047000.3,N
1579820495.6,286047002.0,N
1579820515.4,286047002.1,N
1579820535.2,286047002.5,N
1579820555.1,286047002.2,N
1579820556.0,286047002.2,N
1579820575.8,286047000.1,N
1579820595.6,286047000.1,N
1579820615.5,286047000.4,N
1579820635.3,286047001.8,N
1579820655.2,286047002.0,N
1579820675.9,286047001.3,N
1579820695.7,286047002.4,N
1579820715.6,286047004.2,N
1579820735.4,286047002.1,N
1579820755.2,286046999.8,N
1579820775.1,286047000.3,N
1579820776.0,286047000.3,N
1579820795.8,286047004.4,N
1579820815.7,286047004.2,N
1579820835.5,286047002.9,N
1579820855.3,286047005.1,N
1579820875.2,286047003.3,N
1579820895.0,286047003.0,N
1579820895.9,286047003.0,N
1579820915.8,286047004.3,N
1579820935.6,286047005.5,Y
1579820955.4,286047000.1,P
1579820975.3,286047001.9,N
1579820995.1,286047003.2,P
1579821015.9,286047004.2,Y
1579821035.7,286047004.4,P
1579821055.5,286047002.3,N
1579821075.4,286047003.8,P
1579821095.2,286047001.8,N
1579821115.0,286047003.1,N
1579821115.9,286047003.1,Y
1579821135.8,286047002.7,P
1579821155.6,286047000.5,P
1579821175.5,286046999.4,N
1579821195.3,286047001.1,N
1579821215.1,286047000.9,N
1579821235.9,286047002.6,N
1579821255.7,286047002.0,N
1579821275.5,286047004.0,Y
1579821295.4,286047000.3,P
1579821315.2,286046999.7,N
1579821335.1,286047000.5,N
1579821336.0,286047000.5,N
1579821355.8,286046999.9,N
1579821375.6,286047011.9,Y
1579821395.5,286046998.4,P
1579821415.3,286046998.6,N
1579821435.1,286046999.1,N
1579821455.9,286046999.1,N
1579821475.7,286046998.3,N
1579821495.6,286046999.6,N
1579821515.4,286046999.4,N
1579821535.2,286046996.6,Y
1579821555.1,286046996.5,P
1579821556.0,286046996.5,N
1579821575.8,286046995.5,P
1579821595.6,286046996.3,N
1579821615.5,286046997.0,N
1579821635.3,286047000.6,N
1579821655.2,286047002.3,N
1579821675.9,286047000.2,N
1579821695.7,286047002.2,N
1579821715.6,286047011.9,Y
1579821735.4,286047005.5,P
1579821755.2,286047005.0,N
1579821775.1,286047006.7,N
1579821776.0,286047006.7,N
1579821795.8,286047007.0,N
1579821815.7,286047010.7,Y
1579821835.5,286047005.2,P
1579821855.3,286047002.9,P
1579821875.2,286047005.9,P
1579821895.0,286047006.7,Y
1579821895.9,286047006.7,P
1579821915.8,286047000.9,N
1579821935.6,286046998.1,N
1579821955.4,286046999.7,N
1579821975.3,286047002.0,N
1579821995.1,286047002.6,N
1579822015.8,286047002.5,N
1579822035.7,286047001.5,N
1579822055.5,286047003.1,N
1579822075.4,286047005.8,N
1579822095.2,286047002.0,N
1579822115.0,286047002.3,N
1579822115.9,286047002.3,N
1579822135.8,286047002.5,N
1579822155.6,286047003.6,N
1579822175.4,286047006.7,Y
1579822195.3,286047006.0,P
1579822215.1,286047001.4,N
1579822235.9,286047002.1,N
1579822255.7,286047002.5,N
1579822275.5,286046999.9,N
1579822295.4,286047007.4,Y
1579822315.2,286047003.8,P
1579822335.0,286047011.9,P
1579822335.9,286047005.8,N
1579822355.8,286047005.7,N
1579822375.6,286047005.4,N
1579822395.5,286047003.4,N
1579822415.3,286047003.2,N
1579822435.1,286047002.9,N
1579822455.9,286047004.9,N
1579822475.7,286047005.0,N
1579822495.5,286047005.0,N
1579822515.4,286047004.9,N
1579822535.2,286047005.8,N
1579822555.0,286047005.9,N
1579822556.0,286047005.9,N
1579822575.8,286047005.1,N
1579822595.6,286047009.0,Y
1579822615.5,286047001.8,P
1579822635.3,286047003.0,N
1579822655.1,286047006.2,P
1579822675.9,286047006.4,Y
1579822695.7,286047002.9,P
1579822715.6,286047001.5,N
1579822735.4,286047002.7,N
1579822755.2,286046998.5,N
1579822775.1,286047001.1,N
1579822776.0,286047001.1,N
1579822795.8,286046996.5,N
1579822815.7,286046996.9,N
1579822835.5,286046998.3,N
1579822855.3,286047000.7,N
1579822875.2,286046998.5,N
1579822895.0,286047000.8,N
1579822895.9,286047000.8,N
1579822915.7,286046998.1,N
1579822935.6,286047000.9,N
1579822955.4,286047001.7,N
1579822975.3,286047005.0,N
1579822995.1,286047004.7,N
1579822996.0,286047004.7,N
1579823015.8,286047006.3,N
1579823035.7,286047005.1,N
1579823055.5,286047010.8,Y
1579823075.4,286047006.5,P
1579823095.2,286047007.9,P
1579823115.0,286047006.9,N
1579823115.9,286047006.9,N
1579823135.8,286047003.5,N
1579823155.6,286047007.6,Y
1579823175.5,286046998.4,P
1579823195.3,286046996.9,N
1579823215.1,286046999.6,N
1579823235.9,286046999.3,N
1579823255.7,286046999.3,N
1579823275.5,286047000.2,N
1579823295.4,286046998.8,N
1579823345.2,286046996.7,E
1579823355.2,286046998.6,N
1579823375.0,286047000.6,P
1579823375.9,286047000.6,N
1579823395.7,286047001.1,N
1579823415.6,286046998.1,N
1579823435.4,286047000.4,N
1579823455.3,286047002.3,N
1579823475.1,286047000.1,N
1579823495.8,286047003.6,N
1579823515.7,286047003.1,N
1579823535.5,286047004.8,N
1579823555.4,286047002.9,N
1579823575.2,286047005.8,N
1579823595.0,286047006.7,Y
1579823595.9,286047006.7,P
1579823615.8,286047004.5,N
1579823635.6,286047006.5,P
1579823655.5,286047007.6,Y
1579823675.3,286047007.0,P
1579823695.1,286047006.2,P
1579823715.9,286047007.4,P
1579823735.7,286047008.6,Y
1579823755.6,286047000.4,P
1579823775.4,286046998.8,N
1579823795.2,286046998.7,N
1579823815.1,286047000.7,N
1579823816.0,286047000.7,N
1579823835.8,286046998.5,N
1579823855.6,286046999.7,N
1579823875.5,286047001.7,N
1579823895.3,286047002.1,N
1579823915.2,286047002.5,N
1579823935.9,286047001.5,N
1579823955.7,286046998.2,N
1579823975.6,286046998.4,N
1579823995.4,286047000.6,N
